Dewpoint
38 39 40 41 42 44 47 50 51 53 57 58 59 59 60 58 58 58 57 57 56 55 55 53 52 53 52 52 51 50 48 47 43 44 45 44 42 41 41 42 44 45 48
38 38 39 40 41 43 45 49 51 53 56 57 59 58 59 58 57 57 57 56 55 54 54 53 51 51 50 49 49 48 47 47 45 42 43 41 39 39 38 36 37 40 43
38 38 38 39 41 42 45 49 50 53 55 56 58 59 58 58 57 57 57 56 55 55 53 52 50 49 48 48 48 48 47 46 45 42 41 41 40 39 35 33 32 34 36
38 37 37 38 40 41 45 47 49 53 56 56 56 59 58 58 57 57 56 56 55 53 53 51 49 48 48 47 47 47 46 44 43 41 40 38 35 32 32 31 30 30 31
38 37 37 38 39 41 43 46 47 50 53 56 58 58 58 58 57 57 56 55 53 52 51 50 49 50 50 49 47 46 45 43 42 39 35 33 32 30 28 28 28 29 28
37 37 37 38 38 40 42 44 46 50 53 58 58 57 57 57 57 56 55 53 52 51 51 51 51 51 50 51 50 48 44 39 35 34 31 30 28 28 28 28 27 23 28
37 36 37 37 38 39 41 43 46 47 52 57 57 56 56 56 56 56 54 52 50 49 48 47 46 46 45 43 45 44 43 42 38 31 30 28 27 27 24 23 23 23 23
36 36 37 37 38 38 41 43 45 47 52 56 55 55 55 55 55 53 50 45 42 41 39 38 36 35 34 31 29 28 28 28 28 27 27 26 25 23 23 23 22 22 22
36 36 37 38 38 39 40 43 45 47 51 55 55 54 53 51 51 48 43 40 38 37 37 36 35 35 40 39 34 33 31 34 39 39 38 37 36 33 28 24 21 21 20
36 37 37 39 39 39 42 43 45 52 54 54 52 51 50 48 49 46 42 39 37 36 37 37 41 38 40 38 30 30 27 23 24 22 21 25 26 29 31 24 22 20 20
37 37 39 39 39 40 43 45 51 52 51 50 48 48 48 47 46 46 44 38 37 37 37 37 37 40 39 37 33 25 23 25 26 21 22 22 22 22 23 23 22 22 19
38 38 40 39 39 42 43 47 50 48 47 46 45 46 46 46 47 46 44 42 40 36 35 35 35 38 36 34 32 34 32 27 22 21 21 21 21 22 22 23 23 22 21
38 39 39 39 39 42 44 48 47 47 46 45 44 43 43 43 43 45 44 42 41 34 32 34 36 36 36 35 35 33 29 23 22 21 21 21 22 22 22 23 23 23 24
38 38 39 39 40 43 49 48 46 45 44 43 43 42 42 41 40 39 37 36 38 35 36 34 34 34 34 33 28 26 23 23 22 21 22 22 22 22 22 22 22 22 22
38 38 38 40 41 44 48 48 47 46 45 43 42 40 39 38 36 37 35 33 33 35 33 29 27 25 23 24 25 25 24 23 22 22 22 22 22 21 21 22 22 22 21
38 38 39 40 42 47 46 46 48 47 47 46 44 41 39 40 39 39 39 38 38 36 28 24 22 23 23 23 23 23 25 25 24 24 23 23 22 22 22 22 22 22 22
37 38 40 41 46 46 45 43 42 45 46 45 44 43 42 41 42 41 39 38 36 30 23 22 22 23 23 23 23 23 23 24 25 25 24 24 25 24 23 23 23 22 22
38 39 41 46 45 45 44 43 42 41 41 42 43 42 43 43 42 41 37 33 26 24 22 22 23 23 23 23 23 24 24 25 25 25 24 24 24 24 23 23 23 23 23
40 41 46 45 45 44 43 43 42 41 41 41 41 41 42 42 40 37 32 25 23 23 23 23 23 23 23 24 25 26 25 25 26 26 25 25 24 24 24 25 25 26 25
44 46 45 44 44 43 43 42 41 40 39 39 38 38 37 35 29 26 26 25 24 24 24 24 24 24 25 26 26 26 27 26 25 24 24 24 24 24 24 24 24 23 23
46 45 45 44 43 43 42 41 40 39 38 38 37 36 36 28 27 26 25 25 25 24 24 24 25 26 26 27 27 26 25 25 25 24 24 24 25 25 25 25 24 24 24
46 45 45 44 43 43 41 41 40 38 37 36 36 35 33 27 27 26 26 26 26 26 26 26 26 27 27 27 26 25 25 25 25 25 25 25 25 25 25 24 24 24 24
45 44 44 44 43 43 41 40 38 37 36 36 33 30 28 27 27 27 27 27 27 27 27 27 27 27 27 27 26 27 26 25 25 26 25 25 25 25 25 25 25 25 25
45 44 43 43 42 41 40 38 37 36 35 32 30 28 28 28 28 28 28 28 28 27 27 27 27 27 26 26 27 27 26 26 26 26 26 26 27 27 26 26 26 26 26
45 44 43 42 41 40 38 37 36 34 32 30 29 29 29 29 28 29 28 28 28 27 27 27 27 27 26 26 26 26 29 29 26 27 26 25 26 26 26 26 25 25 24
44 43 43 42 41 40 37 36 34 32 31 30 30 29 29 29 29 29 29 28 28 27 27 27 27 27 26 26 26 31 31 31 29 28 26 25 25 25 26 25 25 25 25
Lifted_Index
8 8 9 9 8 6 3 2 2 1 -0 -2 -3 -3 -3 -3 -2 -1 -0 1 1 1 2 1 1 1 1 2 2 2 3 4 5 5 6 6 6 7 7 7 7 8 9
7 8 9 9 8 6 4 2 1 1 -0 -1 -2 -3 -2 -2 -1 -0 0 1 2 2 2 2 2 2 2 2 2 2 3 4 5 5 6 6 6 7 7 8 9 10 11
7 8 9 9 8 7 4 2 1 1 0 -1 -2 -2 -2 -1 -0 1 1 2 2 2 2 2 2 2 2 2 2 3 3 4 5 5 5 6 6 7 8 9 11 13 14
8 8 9 9 9 7 4 2 1 1 0 -1 -1 -1 -1 -1 0 1 2 2 2 2 2 2 2 2 2 3 3 3 4 5 5 6 6 6 7 8 10 11 13 15 16
8 8 9 9 9 8 5 2 1 1 0 -0 -0 -0 -1 -0 0 1 2 2 2 2 2 3 3 3 3 3 4 4 5 5 6 6 7 7 8 10 12 13 15 16 16
8 9 9 10 9 8 5 2 1 1 0 -0 -0 -0 -0 0 1 2 2 2 2 3 3 3 3 3 4 4 4 5 6 6 7 8 8 9 11 13 14 15 16 16 16
8 9 10 10 9 8 5 2 1 1 1 -0 -0 0 1 1 2 2 2 2 3 3 3 4 4 4 4 5 6 6 7 8 9 11 12 13 14 15 16 16 16 16 17
9 9 9 9 9 8 5 3 2 2 1 0 0 1 2 2 2 2 2 3 3 4 4 4 5 5 5 6 7 8 9 11 13 15 15 16 16 17 17 17 17 17 17
9 9 9 9 9 7 5 2 2 2 1 1 1 2 2 2 2 2 2 3 3 4 5 5 5 6 7 8 9 10 12 14 16 17 17 17 17 17 17 17 17 17 17
9 9 9 9 9 7 5 3 2 1 1 1 2 2 2 2 2 2 2 3 4 5 5 6 7 8 10 11 12 13 14 15 16 16 16 16 17 17 17 17 17 17 17
9 9 9 9 9 7 5 4 2 1 2 2 2 2 2 2 2 3 3 4 4 5 6 8 10 12 13 14 15 15 16 16 16 16 15 15 16 16 17 18 18 18 18
8 9 9 9 8 7 6 5 3 2 2 2 2 2 2 3 3 3 3 4 5 6 8 11 14 15 16 17 17 16 16 16 16 15 14 15 15 16 17 18 19 19 18
8 9 9 8 7 6 6 5 4 3 3 3 3 3 3 3 3 3 4 5 7 8 11 14 16 17 17 17 16 16 16 16 15 14 14 14 15 16 17 18 18 18 18
8 8 8 7 6 6 6 5 4 3 3 3 3 3 3 3 4 4 5 7 8 11 14 16 17 17 17 16 16 16 16 15 15 14 14 14 15 16 16 17 17 17 16
8 8 7 6 6 6 6 5 4 3 3 3 3 3 4 4 5 5 7 8 11 13 15 16 16 16 15 15 15 15 15 15 14 14 14 14 15 15 16 17 16 16 15
9 8 6 5 6 6 6 5 4 3 3 3 3 4 4 5 6 7 9 11 13 15 15 15 15 15 15 14 15 15 15 15 14 14 14 14 14 14 15 16 16 15 14
8 7 5 5 6 6 5 5 4 3 3 3 3 4 5 6 8 10 12 14 15 16 15 15 15 15 14 14 15 15 15 15 15 14 14 14 14 14 14 15 15 14 14
6 6 5 5 5 5 5 4 4 3 3 3 4 5 7 8 10 13 14 15 16 16 15 15 15 15 15 15 15 15 15 15 15 14 14 14 14 14 14 14 14 14 14
5 5 5 5 5 4 4 4 3 3 3 4 5 7 9 11 13 15 16 16 15 16 16 15 15 15 15 15 15 15 15 15 15 15 14 14 14 14 14 14 14 14 14
5 5 4 4 4 4 4 3 3 3 3 4 6 8 11 13 14 16 16 16 16 16 16 16 15 15 15 15 16 16 16 16 15 15 15 15 14 14 14 14 14 13 13
5 4 4 4 4 4 3 3 3 3 3 4 7 9 12 14 15 16 16 16 17 17 16 16 16 16 16 16 16 16 16 16 16 15 15 15 15 15 14 14 14 14 14
4 4 4 4 4 4 3 3 3 3 3 5 8 11 13 15 16 16 16 16 17 17 17 17 16 16 17 17 17 17 16 16 16 16 16 15 15 15 15 14 14 14 14
4 4 4 3 4 4 4 3 3 3 4 7 10 12 15 16 16 16 16 17 18 18 18 17 17 17 17 18 18 18 17 17 17 16 16 16 15 15 15 15 14 14 14
5 4 4 4 3 3 3 3 4 5 6 9 11 14 15 16 16 16 17 18 18 18 18 18 18 18 18 18 18 18 18 18 17 17 17 16 16 15 15 15 15 15 15
5 5 4 4 4 3 3 4 5 7 9 11 13 15 16 16 16 16 17 18 18 18 18 18 18 18 18 18 19 19 19 18 18 18 17 17 16 16 16 15 15 15 15
5 5 4 4 4 3 3 4 6 8 10 12 14 15 16 16 16 17 17 18 18 18 18 18 19 19 19 19 19 19 19 19 18 18 18 17 16 16 16 16 15 15 15